Date String (YYYY-MM-DD hh:mm:ss) UTC,Instrument flags,absolute air pressure of the measurement (hPa),sample flow rate (lpm),inlet stack bypass flow (lpm),air temperature of the measurement (°C),ambient temperature measured by the external sensor (°C),aerosol sample conditioner tube jacket temperature (°C),OPC LED temperature (°C),internal box temperature (°C),relative humidity of the measurement (%),span deviation,mass concentration of particles derived from Lorenz-Mie calculation of OPC scattering (μg/m³),mass concentration of particles derived from Lorenz-Mie calculation of OPC scattering (μg/m³),mass concentration of particles derived from Lorenz-Mie calculation of OPC scattering (μg/m³)
DateTimeUTC,F1_M11,P_M11,Q1_M11,Q2_M11,T1_M11,T2_M11,T3_M11,T4_M11,T5_M11,U1_M11,ZSPAN_M11,X0_M11,X2_M11,X1_M11
2023-11-02 03:00:00,SystemResetWarning,0831.4,5.01,000.00,026.7,025.5,000.0,035.2,028.1,9.9,0000.0,0002.19,0001.54,0001.41
2023-11-02 03:01:00,SystemResetWarning,0831.4,4.99,000.00,026.7,025.5,000.0,035.2,028.2,9.8,0000.0,0002.30,0001.57,0001.41
2023-11-02 03:02:00,SystemResetWarning,0831.4,5.00,000.00,026.7,025.5,000.0,035.2,028.1,9.7,0000.0,0002.43,0001.61,0001.42
2023-11-02 03:03:00,SystemResetWarning,0831.4,5.00,000.00,026.7,025.5,000.0,035.2,028.0,9.8,0000.0,0002.48,0001.64,0001.44
2023-11-02 03:04:00,SystemResetWarning,0831.4,5.01,000.00,026.7,025.4,000.0,035.1,028.1,9.8,0000.0,0002.40,0001.65,0001.45
2023-11-02 03:05:00,SystemResetWarning,0831.4,5.01,000.00,026.7,025.4,000.0,035.1,028.1,9.9,0000.0,0002.44,0001.67,0001.45
2023-11-02 03:06:00,SystemResetWarning,0831.4,4.99,000.00,026.6,025.4,000.0,035.1,028.0,9.9,0000.0,0002.47,0001.68,0001.46
2023-11-02 03:07:00,SystemResetWarning,0831.4,5.00,000.00,026.6,025.4,000.0,035.1,028.0,10.0,0000.0,0002.47,0001.69,0001.48
2023-11-02 03:08:00,SystemResetWarning,0831.4,4.99,000.00,026.6,025.3,000.0,035.1,028.0,10.0,0000.0,0002.71,0001.71,0001.49
2023-11-02 03:09:00,SystemResetWarning,0831.4,5.01,000.00,026.6,025.3,000.0,035.1,028.0,10.1,0000.0,0002.78,0001.75,0001.53
2023-11-02 03:10:00,SystemResetWarning,0831.4,4.99,000.00,026.6,025.3,000.0,035.1,028.0,9.9,0000.0,0002.69,0001.78,0001.56
2023-11-02 03:11:00,SystemResetWarning,0831.3,5.01,000.00,026.6,025.3,000.0,035.1,028.0,9.9,0000.0,0002.68,0001.83,0001.61
2023-11-02 03:12:00,SystemResetWarning,0831.3,5.01,000.00,026.6,025.3,000.0,035.1,027.9,10.0,0000.0,0002.70,0001.88,0001.67
2023-11-02 03:13:00,SystemResetWarning,0831.4,4.98,000.00,026.6,025.3,000.0,035.1,028.0,10.1,0000.0,0002.65,0001.92,0001.71
2023-11-02 03:14:00,SystemResetWarning,0831.4,5.02,000.00,026.6,025.3,000.0,035.0,028.0,10.1,0000.0,0002.71,0001.96,0001.74
2023-11-02 03:15:00,SystemResetWarning,0831.4,5.01,000.00,026.5,025.3,000.0,035.0,028.0,10.0,0000.0,0003.00,0002.03,0001.79
2023-11-02 03:16:00,SystemResetWarning,0831.3,5.00,000.00,026.5,025.3,000.0,035.0,027.9,10.1,0000.0,0003.29,0002.07,0001.83
2023-11-02 03:17:00,SystemResetWarning,0831.3,4.99,000.00,026.5,025.3,000.0,035.0,027.9,10.1,0000.0,0003.28,0002.09,0001.86
2023-11-02 03:18:00,SystemResetWarning,0831.3,5.00,000.00,026.5,025.3,000.0,035.0,027.9,10.1,0000.0,0003.32,0002.10,0001.86
2023-11-02 03:19:00,SystemResetWarning,0831.4,5.01,000.00,026.5,025.3,000.0,035.0,027.9,10.0,0000.0,0003.14,0002.07,0001.84
2023-11-02 03:20:00,SystemResetWarning,0831.3,5.00,000.00,026.5,025.3,000.0,035.0,027.8,10.0,0000.0,0003.05,0002.07,0001.83
2023-11-02 03:21:00,SystemResetWarning,0831.3,5.00,000.00,026.5,025.2,000.0,035.0,027.8,9.9,0000.0,0003.09,0002.05,0001.82
2023-11-02 03:22:00,SystemResetWarning,0831.3,5.00,000.00,026.4,025.2,000.0,035.0,027.8,9.9,0000.0,0003.18,0002.05,0001.80
2023-11-02 03:23:00,SystemResetWarning,0831.3,5.00,000.00,026.4,025.2,000.0,035.0,027.8,9.8,0000.0,0003.24,0002.02,0001.74
2023-11-02 03:24:00,SystemResetWarning,0831.3,5.00,000.00,026.4,025.1,000.0,034.9,027.8,9.9,0000.0,0003.19,0001.97,0001.70
2023-11-02 03:25:00,SystemResetWarning,0831.3,4.99,000.00,026.4,025.1,000.0,034.9,027.8,10.0,0000.0,0003.14,0001.91,0001.65
2023-11-02 03:26:00,SystemResetWarning,0831.3,4.99,000.00,026.4,025.1,000.0,034.9,027.8,10.0,0000.0,0002.97,0001.85,0001.60
2023-11-02 03:27:00,SystemResetWarning,0831.3,5.01,000.00,026.4,025.1,000.0,034.9,027.8,10.0,0000.0,0002.59,0001.83,0001.57
2023-11-02 03:28:00,SystemResetWarning,0831.3,5.01,000.00,026.4,025.1,000.0,034.9,027.7,10.0,0000.0,0002.57,0001.82,0001.55
2023-11-02 03:29:00,SystemResetWarning,0831.3,4.99,000.00,026.3,025.1,000.0,034.9,027.7,9.9,0000.0,0002.57,0001.82,0001.54
2023-11-02 03:30:00,SystemResetWarning,0831.3,4.99,000.00,026.3,025.1,000.0,034.9,027.7,9.8,0000.0,0002.59,0001.84,0001.56
2023-11-02 03:31:00,SystemResetWarning,0831.3,5.00,000.00,026.3,025.1,000.0,034.8,027.7,9.8,0000.0,0002.58,0001.83,0001.55
2023-11-02 03:32:00,SystemResetWarning,0831.3,5.01,000.00,026.3,025.1,000.0,034.8,027.6,9.9,0000.0,0002.44,0001.78,0001.53
2023-11-02 03:33:00,SystemResetWarning,0831.3,5.02,000.00,026.3,025.1,000.0,034.8,027.6,9.8,0000.0,0002.48,0001.75,0001.52
2023-11-02 03:34:00,SystemResetWarning,0831.3,5.00,000.00,026.3,025.0,000.0,034.8,027.6,9.9,0000.0,0002.68,0001.72,0001.52
2023-11-02 03:35:00,SystemResetWarning,0831.3,4.99,000.00,026.3,025.0,000.0,034.8,027.6,9.6,0000.0,0002.64,0001.71,0001.53
2023-11-02 03:36:00,SystemResetWarning,0831.3,5.00,000.00,026.2,024.9,000.0,034.8,027.6,9.7,0000.0,0002.68,0001.72,0001.54
2023-11-02 03:37:00,SystemResetWarning,0831.3,4.99,000.00,026.2,024.9,000.0,034.7,027.6,9.6,0000.0,0002.73,0001.75,0001.55
2023-11-02 03:38:00,SystemResetWarning,0831.3,4.99,000.00,026.2,024.9,000.0,034.7,027.6,9.7,0000.0,0002.70,0001.73,0001.55
2023-11-02 03:39:00,SystemResetWarning,0831.3,5.00,000.00,026.2,025.0,000.0,034.7,027.6,9.6,0000.0,0002.67,0001.71,0001.54
2023-11-02 03:40:00,SystemResetWarning,0831.3,4.99,000.00,026.2,025.0,000.0,034.7,027.6,9.6,0000.0,0002.71,0001.73,0001.53
2023-11-02 03:41:00,SystemResetWarning,0831.3,5.00,000.00,026.2,024.9,000.0,034.7,027.6,9.6,0000.0,0002.72,0001.73,0001.52
2023-11-02 03:42:00,SystemResetWarning,0831.3,5.01,000.00,026.2,024.9,000.0,034.7,027.6,9.5,0000.0,0002.72,0001.73,0001.53
2023-11-02 03:43:00,SystemResetWarning,0831.3,5.01,000.00,026.1,024.9,000.0,034.7,027.6,9.6,0000.0,0002.73,0001.73,0001.53
2023-11-02 03:44:00,SystemResetWarning,0831.3,5.00,000.00,026.1,024.9,000.0,034.7,027.6,9.6,0000.0,0002.60,0001.74,0001.53
2023-11-02 03:45:00,SystemResetWarning,0831.3,4.99,000.00,026.1,024.9,000.0,034.7,027.5,9.6,0000.0,0002.20,0001.74,0001.53
2023-11-02 03:46:00,SystemResetWarning,0831.3,4.99,000.00,026.1,024.9,000.0,034.6,027.4,9.6,0000.0,0002.57,0001.76,0001.53
2023-11-02 03:47:00,SystemResetWarning,0831.2,5.00,000.00,026.1,024.9,000.0,034.6,027.5,9.8,0000.0,0002.55,0001.76,0001.53
2023-11-02 03:48:00,SystemResetWarning,0831.3,5.01,000.00,026.1,024.9,000.0,034.6,027.5,9.8,0000.0,0002.60,0001.79,0001.53
2023-11-02 03:49:00,SystemResetWarning,0831.2,5.01,000.00,026.1,024.9,000.0,034.6,027.5,9.8,0000.0,0002.77,0001.83,0001.54
2023-11-02 03:50:00,SystemResetWarning,0831.2,5.00,000.00,026.1,024.8,000.0,034.6,027.4,9.8,0000.0,0002.77,0001.83,0001.55
2023-11-02 03:51:00,SystemResetWarning,0831.3,4.98,000.00,026.0,024.8,000.0,034.6,027.4,9.8,0000.0,0002.76,0001.83,0001.56
2023-11-02 03:52:00,SystemResetWarning,0831.2,5.00,000.00,026.0,024.8,000.0,034.6,027.4,9.6,0000.0,0002.68,0001.80,0001.56
2023-11-02 03:53:00,SystemResetWarning,0831.2,5.00,000.00,026.0,024.8,000.0,034.5,027.4,9.4,0000.0,0003.05,0001.81,0001.56
2023-11-02 03:54:00,SystemResetWarning,0831.2,5.01,000.00,026.0,024.8,000.0,034.5,027.4,9.4,0000.0,0003.47,0001.84,0001.58
2023-11-02 03:55:00,SystemResetWarning,0831.2,5.00,000.00,026.0,024.8,000.0,034.5,027.3,9.3,0000.0,0003.52,0001.84,0001.59
2023-11-02 03:56:00,SystemResetWarning,0831.2,5.01,000.00,026.0,024.8,000.0,034.5,027.4,9.2,0000.0,0003.50,0001.85,0001.59
2023-11-02 03:57:00,SystemResetWarning,0831.3,5.01,000.00,026.0,024.7,000.0,034.5,027.4,9.3,0000.0,0003.41,0001.87,0001.59
2023-11-02 03:58:00,SystemResetWarning,0831.2,5.00,000.00,026.0,024.7,000.0,034.5,027.4,9.4,0000.0,0003.56,0001.88,0001.59
2023-11-02 03:59:00,SystemResetWarning,0831.3,4.99,000.00,026.0,024.7,000.0,034.5,027.4,9.8,0000.0,0003.58,0001.89,0001.61
